Atmospheric History
12/06/2017 18:32  to  12/7/2017 18:32
Change End Date:
To complete the export process:
1) Select all of the data below
2) Copy the data to the clipboard
3) Open a word processor such as Notepad
4) Paste the data into the word processor
5) Save the file

Date/Time (MST), AirTemp, RH, Dewpoint ,AvgWindSpeed, GustWindSpeed, WindDirection, PrecipType, PrecipIntensity, PrecipAccumulation, PrecipRate
12/07/2017 18:30, 38, 54, 23 ,16, 20, W, None, None, ,  
12/07/2017 18:20, 38, 54, 23 ,12, 17, W, None, None, ,  
12/07/2017 18:19, 38, 54, 23 ,12, 17, W, None, None, ,  
12/07/2017 18:10, 38, 53, 23 ,13, 19, W, None, None, ,  
12/07/2017 18:04, 38, 53, 23 ,16, 21, W, None, None, ,  
12/07/2017 18:00, 38, 53, 23 ,16, 21, W, None, None, ,  
12/07/2017 17:50, 38, 53, 23 ,14, 21, W, None, None, ,  
12/07/2017 17:49, 39, 53, 23 ,15, 21, W, None, None, ,  
12/07/2017 17:40, 39, 53, 23 ,14, 20, W, None, None, ,  
12/07/2017 17:34, 39, 52, 23 ,16, 20, W, None, None, ,  
12/07/2017 17:30, 39, 52, 23 ,15, 23, W, None, None, ,  
12/07/2017 17:20, 39, 51, 23 ,17, 24, W, None, None, ,  
12/07/2017 17:19, 39, 52, 23 ,18, 24, W, None, None, ,  
12/07/2017 17:10, 38, 53, 23 ,14, 22, W, None, None, ,  
12/07/2017 17:04, 38, 52, 22 ,19, 23, W, None, None, ,  
12/07/2017 17:00, 38, 53, 22 ,17, 22, W, None, None, ,  
12/07/2017 16:50, 38, 52, 22 ,17, 23, W, None, None, ,  
12/07/2017 16:49, 38, 52, 22 ,17, 23, W, None, None, ,  
12/07/2017 16:40, 38, 52, 22 ,18, 24, W, None, None, ,  
12/07/2017 16:34, 38, 52, 22 ,17, 22, W, None, None, ,  
12/07/2017 16:30, 38, 52, 22 ,17, 21, W, None, None, ,  
12/07/2017 16:20, 38, 51, 22 ,15, 22, W, None, None, ,  
12/07/2017 16:19, 38, 51, 22 ,15, 22, W, None, None, ,  
12/07/2017 16:10, 38, 52, 22 ,12, 19, W, None, None, ,  
12/07/2017 16:04, 38, 52, 22 ,14, 19, W, None, None, ,  
12/07/2017 15:59, 38, 52, 22 ,14, 19, W, None, None, ,  
12/07/2017 15:49, 38, 52, 22 ,12, 19, W, None, None, ,  
12/07/2017 15:49, 38, 52, 22 ,12, 19, W, None, None, ,  
12/07/2017 15:39, 38, 51, 22 ,13, 17, W, None, None, ,  
12/07/2017 15:34, 39, 50, 22 ,12, 17, W, None, None, ,  
12/07/2017 15:29, 39, 50, 22 ,12, 18, W, None, None, ,  
12/07/2017 15:19, 39, 50, 22 ,12, 19, W, None, None, ,  
12/07/2017 15:19, 39, 49, 22 ,12, 19, W, None, None, ,  
12/07/2017 15:09, 40, 49, 22 ,12, 19, W, None, None, ,  
12/07/2017 15:04, 40, 50, 22 ,14, 17, W, None, None, ,  
12/07/2017 14:59, 40, 49, 22 ,14, 19, W, None, None, ,  
12/07/2017 14:49, 40, 49, 22 ,11, 23, W, None, None, ,  
12/07/2017 14:49, 40, 49, 22 ,11, 23, W, None, None, ,  
12/07/2017 14:39, 39, 49, 22 ,17, 21, W, None, None, ,  
12/07/2017 14:34, 39, 50, 22 ,16, 21, W, None, None, ,  
12/07/2017 14:29, 39, 50, 22 ,14, 25, NW, None, None, ,  
12/07/2017 14:19, 39, 52, 23 ,15, 20, NW, None, None, ,  
12/07/2017 14:19, 39, 52, 23 ,14, 20, NW, None, None, ,  
12/07/2017 14:09, 39, 51, 22 ,18, 22, NW, None, None, ,  
12/07/2017 14:04, 39, 52, 23 ,14, 22, NW, None, None, ,  
12/07/2017 13:59, 39, 53, 23 ,14, 22, NW, None, None, ,  
12/07/2017 13:49, 38, 53, 23 ,15, 22, NW, None, None, ,  
12/07/2017 13:49, 38, 53, 23 ,15, 22, NW, None, None, ,  
12/07/2017 13:39, 38, 52, 23 ,14, 20, NW, None, None, ,  
12/07/2017 13:34, 38, 53, 23 ,14, 18, NW, None, None, ,  
12/07/2017 13:29, 38, 55, 23 ,11, 18, NW, None, None, ,  
12/07/2017 13:19, 38, 54, 23 ,14, 21, NW, None, None, ,  
12/07/2017 13:19, 38, 54, 23 ,14, 21, NW, None, None, ,  
12/07/2017 13:09, 38, 53, 23 ,16, 21, NW, None, None, ,  
12/07/2017 13:04, 38, 54, 23 ,15, 19, NW, None, None, ,  
12/07/2017 12:59, 38, 54, 23 ,14, 22, NW, None, None, ,  
12/07/2017 12:49, 38, 55, 24 ,14, 25, NW, None, None, ,  
12/07/2017 12:49, 38, 55, 24 ,14, 25, NW, None, None, ,  
12/07/2017 12:39, 38, 53, 23 ,19, 29, NW, None, None, ,  
12/07/2017 12:34, 38, 53, 23 ,20, 29, NW, None, None, ,  
12/07/2017 12:29, 38, 53, 23 ,17, 24, NW, None, None, ,  
12/07/2017 12:19, 38, 52, 22 ,20, 24, NW, None, None, ,  
12/07/2017 12:19, 39, 52, 23 ,21, 24, NW, None, None, ,  
12/07/2017 12:08, 39, 53, 23 ,12, 19, NW, None, None, ,  
12/07/2017 12:05, 38, 53, 23 ,12, 19, NW, None, None, ,  
12/07/2017 11:58, 37, 57, 23 ,12, 16, NW, None, None, ,  
12/07/2017 11:49, 37, 56, 23 ,10, 15, NW, None, None, ,  
12/07/2017 11:48, 37, 56, 23 ,10, 15, NW, None, None, ,  
12/07/2017 11:38, 37, 56, 22 ,10, 16, NW, None, None, ,  
12/07/2017 11:34, 37, 54, 22 ,11, 16, W, None, None, ,  
12/07/2017 11:28, 36, 55, 22 ,11, 16, W, None, None, ,  
12/07/2017 11:19, 36, 54, 21 ,11, 14, NW, None, None, ,  
12/07/2017 11:18, 36, 55, 22 ,9, 14, NW, None, None, ,  
12/07/2017 11:08, 35, 56, 21 ,7, 13, W, None, None, ,  
12/07/2017 11:04, 35, 55, 21 ,8, 13, W, None, None, ,  
12/07/2017 10:58, 34, 56, 20 ,9, 12, W, None, None, ,  
12/07/2017 10:49, 33, 59, 20 ,8, 12, W, None, None, ,  
12/07/2017 10:48, 33, 59, 20 ,8, 12, W, None, None, ,  
12/07/2017 10:38, 33, 59, 20 ,9, 15, W, None, None, ,  
12/07/2017 10:34, 33, 59, 20 ,11, 15, W, None, None, ,  
12/07/2017 10:28, 32, 59, 20 ,10, 16, W, None, None, ,  
12/07/2017 10:19, 32, 59, 19 ,9, 16, W, None, None, ,  
12/07/2017 10:18, 32, 59, 19 ,9, 16, W, None, None, ,  
12/07/2017 10:08, 31, 59, 19 ,12, 16, W, None, None, ,  
12/07/2017 10:04, 31, 58, 19 ,11, 16, W, None, None, ,  
12/07/2017 09:58, 31, 58, 19 ,13, 18, W, None, None, ,  
12/07/2017 09:49, 31, 59, 19 ,15, 19, W, None, None, ,  
12/07/2017 09:48, 31, 60, 19 ,14, 19, W, None, None, ,  
12/07/2017 09:38, 31, 59, 18 ,13, 17, W, None, None, ,  
12/07/2017 09:34, 31, 59, 18 ,13, 17, W, None, None, ,  
12/07/2017 09:28, 30, 60, 18 ,12, 16, W, None, None, ,  
12/07/2017 09:19, 29, 63, 18 ,8, 12, W, None, None, ,  
12/07/2017 09:18, 29, 63, 18 ,9, 12, W, None, None, ,  
12/07/2017 09:07, 28, 64, 18 ,8, 10, W, None, None, ,  
12/07/2017 09:04, 28, 64, 18 ,3, 10, W, None, None, ,  
12/07/2017 08:57, 28, 66, 18 ,5, 8, W, None, None, ,  
12/07/2017 08:49, 27, 68, 18 ,7, 9, SW, None, None, ,  
12/07/2017 08:47, 26, 69, 18 ,7, 9, SW, None, None, ,  
12/07/2017 08:37, 25, 74, 18 ,7, 11, SW, None, None, ,  
12/07/2017 08:34, 22, 82, 17 ,7, 11, SW, None, None, ,  
12/07/2017 08:27, 19, 85, 15 ,6, 7, SW, None, None, ,  
12/07/2017 08:19, 19, 86, 15 ,6, 6, S, None, None, ,  
12/07/2017 08:17, 18, 86, 15 ,6, 6, S, None, None, ,  
12/07/2017 08:07, 18, 86, 15 ,6, 8, S, None, None, ,  
12/07/2017 08:04, 17, 87, 14 ,4, 6, S, None, None, ,  
12/07/2017 07:57, 18, 86, 14 ,2, 7, S, None, None, ,  
12/07/2017 07:49, 17, 88, 14 ,0, 7, S, None, None, ,  
12/07/2017 07:47, 17, 88, 14 ,1, 7, S, None, None, ,  
12/07/2017 07:37, 17, 88, 14 ,5, 9, S, None, None, ,  
12/07/2017 07:34, 17, 87, 14 ,7, 9, S, None, None, ,  
12/07/2017 07:27, 16, 88, 13 ,6, 7, S, None, None, ,  
12/07/2017 07:19, 16, 87, 13 ,6, 8, S, None, None, ,  
12/07/2017 07:17, 17, 88, 13 ,6, 8, S, None, None, ,  
12/07/2017 07:07, 17, 88, 13 ,7, 9, S, None, None, ,  
12/07/2017 07:04, 16, 88, 13 ,7, 9, S, None, None, ,  
12/07/2017 06:57, 16, 89, 13 ,9, 9, S, None, None, ,  
12/07/2017 06:49, 16, 89, 14 ,8, 10, S, None, None, ,  
12/07/2017 06:47, 16, 89, 13 ,9, 10, S, None, None, ,  
12/07/2017 06:37, 17, 89, 14 ,8, 9, S, None, None, ,  
12/07/2017 06:34, 17, 89, 14 ,7, 9, S, None, None, ,  
12/07/2017 06:27, 17, 90, 14 ,7, 9, S, None, None, ,  
12/07/2017 06:19, 16, 90, 14 ,6, 9, S, None, None, ,  
12/07/2017 06:17, 16, 90, 14 ,7, 9, S, None, None, ,  
12/07/2017 06:07, 16, 90, 14 ,7, 9, S, None, None, ,  
12/07/2017 06:04, 16, 90, 14 ,8, 9, S, None, None, ,  
12/07/2017 05:57, 16, 91, 13 ,7, 8, S, None, None, ,  
12/07/2017 05:49, 15, 92, 13 ,7, 9, S, None, None, ,  
12/07/2017 05:47, 15, 92, 13 ,5, 9, S, None, None, ,  
12/07/2017 05:37, 15, 91, 12 ,4, 9, S, None, None, ,  
12/07/2017 05:34, 14, 91, 12 ,7, 9, S, None, None, ,  
12/07/2017 05:26, 14, 91, 12 ,7, 11, S, None, None, ,  
12/07/2017 05:19, 14, 90, 11 ,9, 11, S, None, None, ,  
12/07/2017 05:16, 14, 90, 11 ,7, 11, S, None, None, ,  
12/07/2017 05:06, 14, 91, 11 ,7, 9, S, None, None, ,  
12/07/2017 05:04, 14, 91, 11 ,7, 9, S, None, None, ,  
12/07/2017 04:56, 13, 91, 11 ,6, 9, S, None, None, ,  
12/07/2017 04:49, 13, 92, 11 ,7, 8, S, None, None, ,  
12/07/2017 04:46, 13, 92, 11 ,6, 6, S, None, None, ,  
12/07/2017 04:36, 12, 92, 10 ,6, 7, S, None, None, ,  
12/07/2017 04:34, 12, 91, 10 ,6, 7, S, None, None, ,  
12/07/2017 04:26, 12, 92, 10 ,6, 9, S, None, None, ,  
12/07/2017 04:19, 11, 91, 10 ,7, 9, S, None, None, ,  
12/07/2017 04:16, 11, 91, 10 ,7, 8, S, None, None, ,  
12/07/2017 04:06, 11, 92, 9 ,5, 6, S, None, None, ,  
12/07/2017 04:04, 11, 92, 9 ,6, 6, S, None, None, ,  
12/07/2017 03:56, 10, 91, 8 ,4, 6, S, None, None, ,  
12/07/2017 03:49, 10, 92, 8 ,6, 7, S, None, None, ,  
12/07/2017 03:46, 10, 92, 8 ,6, 7, S, None, None, ,  
12/07/2017 03:36, 9, 93, 8 ,6, 7, S, None, None, ,  
12/07/2017 03:34, 9, 93, 7 ,5, 7, S, None, None, ,  
12/07/2017 03:26, 8, 92, 6 ,6, 7, S, None, None, ,  
12/07/2017 03:19, 8, 92, 6 ,6, 6, S, None, None, ,  
12/07/2017 03:16, 8, 92, 6 ,5, 6, S, None, None, ,  
12/07/2017 03:06, 7, 92, 5 ,6, 6, S, None, None, ,  
12/07/2017 03:04, 7, 92, 5 ,6, 6, S, None, None, ,  
12/07/2017 02:56, 7, 92, 5 ,5, 6, S, None, None, ,  
12/07/2017 02:49, 8, 93, 6 ,6, 6, S, None, None, ,  
12/07/2017 02:46, 8, 94, 7 ,6, 6, S, None, None, ,  
12/07/2017 02:36, 10, 95, 9 ,4, 4, S, None, None, ,  
12/07/2017 02:34, 10, 95, 9 ,3, 4, S, None, None, ,  
12/07/2017 02:26, 9, 95, 8 ,4, 4, SE, None, None, ,  
12/07/2017 02:19, 9, 95, 7 ,2, 5, S, None, None, ,  
12/07/2017 02:16, 8, 92, 6 ,4, 6, S, None, None, ,  
12/07/2017 02:06, 9, 94, 8 ,4, 5, S, None, None, ,  
12/07/2017 02:04, 10, 94, 8 ,4, 4, S, None, None, ,  
12/07/2017 01:56, 11, 100, 11 ,2, 3, S, None, None, ,  
12/07/2017 01:49, 9, 92, 7 ,0, 4, SW, None, None, ,  
12/07/2017 01:45, 10, 91, 8 ,2, 4, S, None, None, ,  
12/07/2017 01:35, 9, 92, 8 ,4, 5, S, None, None, ,  
12/07/2017 01:34, 10, 94, 8 ,4, 5, S, None, None, ,  
12/07/2017 01:25, 10, 94, 9 ,3, 6, S, None, None, ,  
12/07/2017 01:19, 11, 94, 9 ,5, 6, S, None, None, ,  
12/07/2017 01:15, 11, 96, 10 ,4, 6, S, None, None, ,  
12/07/2017 01:05, 11, 92, 10 ,0, 5, S, None, None, ,  
12/07/2017 01:04, 12, 93, 10 ,2, 5, S, None, None, ,  
12/07/2017 00:55, 13, 94, 12 ,4, 6, S, None, None, ,  
12/07/2017 00:49, 15, 86, 12 ,3, 9, S, None, None, ,  
12/07/2017 00:45, 16, 92, 15 ,7, 9, SW, None, None, ,  
12/07/2017 00:35, 17, 91, 15 ,8, 9, SW, None, None, ,  
12/07/2017 00:34, 17, 91, 15 ,8, 9, SW, None, None, ,  
12/07/2017 00:25, 17, 91, 15 ,9, 9, SW, None, None, ,  
12/07/2017 00:19, 17, 91, 15 ,9, 10, SW, None, None, ,  
12/07/2017 00:15, 17, 91, 15 ,9, 11, SW, None, None, ,  
12/07/2017 00:05, 17, 91, 15 ,11, 11, W, None, None, ,  
12/07/2017 00:04, 17, 92, 15 ,11, 11, W, None, None, ,  
12/06/2017 23:55, 17, 90, 15 ,10, 11, W, None, None, ,  
12/06/2017 23:49, 17, 90, 15 ,11, 12, W, None, None, ,  
12/06/2017 23:45, 17, 91, 15 ,11, 12, W, None, None, ,  
12/06/2017 23:35, 17, 90, 15 ,11, 12, W, None, None, ,  
12/06/2017 23:34, 17, 90, 15 ,12, 12, W, None, None, ,  
12/06/2017 23:25, 17, 90, 15 ,11, 12, W, None, None, ,  
12/06/2017 23:19, 17, 90, 15 ,11, 11, W, None, None, ,  
12/06/2017 23:15, 18, 89, 15 ,9, 9, W, None, None, ,  
12/06/2017 23:05, 19, 86, 16 ,8, 9, W, None, None, ,  
12/06/2017 23:04, 19, 86, 16 ,8, 9, W, None, None, ,  
12/06/2017 22:55, 20, 86, 17 ,7, 9, W, None, None, ,  
12/06/2017 22:49, 20, 86, 17 ,6, 7, W, None, None, ,  
12/06/2017 22:45, 20, 86, 17 ,6, 7, W, None, None, ,  
12/06/2017 22:35, 20, 86, 17 ,4, 6, W, None, None, ,  
12/06/2017 22:34, 20, 87, 17 ,4, 6, W, None, None, ,  
12/06/2017 22:25, 18, 93, 17 ,3, 5, SW, None, None, ,  
12/06/2017 22:19, 18, 93, 16 ,3, 5, SW, None, None, ,  
12/06/2017 22:15, 18, 92, 16 ,2, 3, S, None, None, ,  
12/06/2017 22:05, 18, 92, 16 ,3, 4, S, None, None, ,  
12/06/2017 22:04, 18, 92, 16 ,3, 4, S, None, None, ,  
12/06/2017 21:54, 18, 92, 17 ,3, 6, S, None, None, ,  
12/06/2017 21:49, 18, 92, 16 ,5, 6, S, None, None, ,  
12/06/2017 21:44, 18, 92, 16 ,4, 5, S, None, None, ,  
12/06/2017 21:34, 18, 93, 16 ,4, 6, S, None, None, ,  
12/06/2017 21:34, 18, 93, 16 ,4, 6, S, None, None, ,  
12/06/2017 21:24, 18, 92, 16 ,4, 6, S, None, None, ,  
12/06/2017 21:19, 18, 92, 16 ,6, 6, S, None, None, ,  
12/06/2017 21:14, 18, 92, 16 ,5, 6, S, None, None, ,  
12/06/2017 21:04, 18, 92, 16 ,4, 6, S, None, None, ,  
12/06/2017 21:04, 18, 92, 16 ,4, 6, S, None, None, ,  
12/06/2017 20:54, 17, 94, 16 ,5, 7, S, None, None, ,  
12/06/2017 20:49, 17, 94, 16 ,4, 6, S, None, None, ,  
12/06/2017 20:44, 17, 94, 15 ,4, 6, S, None, None, ,  
12/06/2017 20:34, 16, 94, 15 ,4, 6, S, None, None, ,  
12/06/2017 20:24, 15, 95, 14 ,2, 3, S, None, None, ,  
12/06/2017 20:19, 15, 95, 14 ,2, 3, S, None, None, ,  
12/06/2017 20:14, 15, 94, 14 ,2, 3, S, None, None, ,  
12/06/2017 20:04, 15, 94, 13 ,3, 4, S, None, None, ,  
12/06/2017 20:04, 15, 94, 13 ,3, 4, S, None, None, ,  
12/06/2017 19:54, 16, 92, 14 ,4, 5, SW, None, None, ,  
12/06/2017 19:49, 17, 93, 15 ,3, 3, S, None, None, ,  
12/06/2017 19:44, 17, 93, 15 ,2, 3, SW, None, None, ,  
12/06/2017 19:34, 17, 93, 15 ,3, 3, S, None, None, ,  
12/06/2017 19:34, 17, 93, 15 ,3, 3, S, None, None, ,  
12/06/2017 19:24, 17, 92, 15 ,3, 4, S, None, None, ,  
12/06/2017 19:19, 17, 92, 16 ,4, 4, S, None, None, ,  
12/06/2017 19:14, 17, 92, 16 ,3, 4, S, None, None, ,  
12/06/2017 19:04, 18, 92, 16 ,3, 3, SE, None, None, ,  
12/06/2017 19:04, 18, 92, 16 ,3, 3, SE, None, None, ,  
12/06/2017 18:54, 18, 91, 16 ,0, 0, NE, Yes, , ,  
12/06/2017 18:49, 18, 91, 16 ,0, 1, NE, Yes, , ,  
12/06/2017 18:44, 18, 91, 16 ,0, 1, NE, Yes, , ,  
12/06/2017 18:34, 18, 91, 16 ,0, 1, W, Yes, , ,  
12/06/2017 18:34, 18, 91, 16 ,1, 1, W, None, None, ,  
Change End Date:

Copyright © 1998-2015 Vaisala, Inc.
All Rights Reserved
Send comments about the data to:
SCAN Web ® is a registered trademark of Vaisala, Inc.
SCAN Web Version 6.0